Terug naar catalogus

VENUS

ActiefWetenschapSSO
NORAD 42901·PAYLOAD·🇮🇱 Israel

Gelanceerd Aug 2, 2017 vanaf Guiana Space Centre

Loading…

Volgende Passages (komende 24 uur)

TLE

VersSource: Space-Track

Epoch: Sep 14, 2026, 12:24 UTC

1 42901U 17044B   26257.51714719  .00003707  00000-0  19891-3 0  9997
2 42901  97.2648 290.2679 0004752  63.7451 296.4270 15.15526584494484

Volg VENUS in realtime met AllMySat

Download on the App Store